Location: Recife
(8.0585°S, 34.8848°W)
Time: 18:58:06
(UTC-03:00)

Explorer 11/Cluster Stage 4 - Pass Details

Date: 21 April 2026
Orbit: 463 x 1174 km, 28.8° (Epoch: 19 May)

Event Time Altitude Azimuth Distance (km) Brightness Sun altitude
Exits shadow 04:31:34 16° 291° (WNW) 1,382 7.4 -13.0°
Maximum altitude 04:33:34 24° 332° (NNW) 1,153 7.3 -12.5°
Drops below altitude 10° 04:37:08 10° 26° (NNE) 1,938 9.1 -11.7°
Sets 04:40:03 0° 40° (NE) 2,974 10.4 -10.9°
